| time (UTC) | temp C | wind direction | speed KPH | gust KPH | rain 1hr cm | rain 24hr cm | rain mn cm | humidity % | barometer mb |
| 20260503224014 | 23 | 287 | 8.0 | 17.7 | 0.00 | 0.00 | 0.00 | 50 | 1006.3 |
| 20260503222512 | 23 | 334 | 8.0 | 19.3 | 0.00 | 0.00 | 0.00 | 50 | 1006.4 |
| 20260503221010 | 22 | 311 | 9.7 | 17.7 | 0.00 | 0.00 | 0.00 | 51 | 1006.7 |
| 20260503215509 | 22 | 261 | 8.0 | 20.9 | 0.00 | 0.00 | 0.00 | 53 | 1006.9 |
| 20260503213950 | 22 | 297 | 6.4 | 16.1 | 0.00 | 0.00 | 0.00 | 51 | 1007.1 |
| 20260503212448 | 22 | 44 | 6.4 | 19.3 | 0.00 | 0.00 | 0.00 | 51 | 1007.2 |
| 20260503210950 | 22 | 298 | 9.7 | 19.3 | 0.00 | 0.00 | 0.00 | 55 | 1007.4 |
| 20260503205433 | 22 | 311 | 8.0 | 17.7 | 0.00 | 0.00 | 0.00 | 53 | 1007.4 |
| 20260503203931 | 21 | 355 | 6.4 | 19.3 | 0.00 | 0.00 | 0.00 | 56 | 1007.5 |
| 20260503202411 | 21 | 286 | 4.8 | 16.1 | 0.00 | 0.00 | 0.00 | 59 | 1007.5 |
| 20260503200910 | 21 | 64 | 6.4 | 16.1 | 0.00 | 0.00 | 0.00 | 59 | 1007.7 |
| 20260503195400 | 20 | 215 | 4.8 | 14.5 | 0.00 | 0.00 | 0.00 | 63 | 1008.0 |
| 20260503193840 | 20 | 279 | 6.4 | 17.7 | 0.00 | 0.00 | 0.00 | 64 | 1008.2 |
| 20260503192342 | 20 | 304 | 6.4 | 17.7 | 0.00 | 0.00 | 0.00 | 65 | 1008.3 |
| 20260503190837 | 19 | 285 | 6.4 | 16.1 | 0.00 | 0.00 | 0.00 | 62 | 1008.4 |
| 20260503185338 | 18 | 312 | 4.8 | 12.9 | 0.00 | 0.00 | 0.00 | 64 | 1008.5 |
| 20260503183836 | 19 | 85 | 4.8 | 14.5 | 0.00 | 0.00 | 0.00 | 63 | 1008.6 |
| 20260503182340 | 19 | 32 | 6.4 | 14.5 | 0.00 | 0.00 | 0.00 | 64 | 1008.7 |
| 20260503180837 | 19 | 304 | 6.4 | 19.3 | 0.00 | 0.00 | 0.00 | 64 | 1008.8 |
| 20260503175334 | 20 | 336 | 4.8 | 19.3 | 0.00 | 0.00 | 0.00 | 64 | 1009.0 |
| 20260503173834 | 19 | 332 | 4.8 | 17.7 | 0.00 | 0.00 | 0.00 | 64 | 1009.0 |
| 20260503172333 | 19 | 286 | 4.8 | 16.1 | 0.00 | 0.00 | 0.00 | 66 | 1009.1 |
| 20260503170824 | 19 | 67 | 4.8 | 14.5 | 0.00 | 0.00 | 0.00 | 65 | 1009.3 |
| 20260503150801 | 14 | 307 | 1.6 | 8.0 | 0.00 | 0.00 | 0.00 | 79 | 1009.6 |
| 20260503130644 | 12 | 333 | 1.6 | 9.7 | 0.00 | 0.00 | 0.00 | 83 | 1009.2 |
| 20260503110533 | 11 | 67 | 1.6 | 4.8 | 0.00 | 0.00 | 0.00 | 86 | 1009.4 |
| 20260503090456 | 12 | 57 | 0.0 | 4.8 | 0.00 | 0.00 | 0.00 | 79 | 1009.4 |
| 20260503080435 | 14 | 53 | 3.2 | 12.9 | 0.00 | 0.00 | 0.00 | 71 | 1009.2 |
| 20260503071924 | 12 | 26 | 1.6 | 6.4 | 0.00 | 0.00 | 0.00 | 79 | 1009.3 |
| 20260503070424 | 13 | 42 | 3.2 | 4.8 | 0.00 | 0.00 | 0.00 | 79 | 1009.1 |
| 20260503054851 | 15 | 42 | 3.2 | 9.7 | 0.00 | 0.00 | 0.00 | 71 | 1009.0 |
| 20260503053342 | 14 | 30 | 1.6 | 8.0 | 0.00 | 0.00 | 0.00 | 74 | 1009.0 |
| 20260503051829 | 14 | 5 | 1.6 | 4.8 | 0.00 | 0.00 | 0.00 | 73 | 1009.0 |
| 20260503050306 | 15 | 24 | 0.0 | 4.8 | 0.00 | 0.00 | 0.00 | 71 | 1009.0 |
| 20260503044807 | 15 | 36 | 0.0 | 6.4 | 0.00 | 0.00 | 0.00 | 72 | 1008.9 |
| 20260503043308 | 15 | 46 | 0.0 | 1.6 | 0.00 | 0.00 | 0.00 | 70 | 1008.8 |
| 20260503041801 | 15 | 25 | 0.0 | 1.6 | 0.00 | 0.00 | 0.00 | 70 | 1008.7 |
| 20260503040253 | 15 | 321 | 0.0 | 0.0 | 0.00 | 0.00 | 0.00 | 71 | 1008.6 |
| 20260503034725 | 15 | 320 | 0.0 | 3.2 | 0.00 | 0.00 | 0.00 | 69 | 1008.4 |
| 20260503033203 | 16 | 304 | 0.0 | 4.8 | 0.00 | 0.00 | 0.00 | 65 | 1008.3 |
| 20260503031703 | 17 | 298 | 0.0 | 11.3 | 0.00 | 0.00 | 0.00 | 61 | 1008.1 |
| 20260503030202 | 18 | 321 | 4.8 | 12.9 | 0.00 | 0.00 | 0.00 | 57 | 1008.1 |
| 20260503024659 | 18 | 288 | 6.4 | 12.9 | 0.00 | 0.00 | 0.00 | 57 | 1008.0 |
| 20260503021649 | 20 | 302 | 8.0 | 17.7 | 0.00 | 0.00 | 0.00 | 52 | 1008.0 |
| 20260503020126 | 20 | 303 | 8.0 | 19.3 | 0.00 | 0.00 | 0.00 | 51 | 1008.1 |
| 20260503014623 | 21 | 297 | 4.8 | 16.1 | 0.00 | 0.00 | 0.00 | 53 | 1008.2 |
| 20260503011626 | 21 | 277 | 3.2 | 11.3 | 0.00 | 0.00 | 0.00 | 52 | 1008.4 |
| 20260503010058 | 21 | 62 | 3.2 | 12.9 | 0.00 | 0.00 | 0.00 | 56 | 1008.4 |
| 20260503004556 | 21 | 273 | 4.8 | 22.5 | 0.00 | 0.00 | 0.00 | 54 | 1008.5 |
| 20260503003053 | 21 | 258 | 6.4 | 19.3 | 0.00 | 0.00 | 0.00 | 51 | 1008.4 |
| 20260503001553 | 21 | 327 | 8.0 | 24.1 | 0.00 | 0.00 | 0.00 | 51 | 1008.4 |
| 20260503000058 | 21 | 306 | 11.3 | 25.7 | 0.00 | 0.00 | 0.00 | 49 | 1008.7 |
| 20260502234527 | 21 | 317 | 11.3 | 22.5 | 0.00 | 0.00 | 0.00 | 48 | 1008.8 |
| 20260502233013 | 21 | 283 | 8.0 | 19.3 | 0.00 | 0.00 | 0.00 | 51 | 1009.0 |
| 20260502231512 | 21 | 310 | 9.7 | 20.9 | 0.00 | 0.00 | 0.00 | 55 | 1009.2 |
| 20260502225956 | 20 | 284 | 4.8 | 20.9 | 0.00 | 0.00 | 0.00 | 59 | 1009.4 |